Moab, UT

4:37 AM MST on November 21, 2019 (GMT -0700)
Canyonlands

Weather History for KCNY - May, 2019

Change the Weather History Date:

Friday, May 10, 2019

  Actual Average Record
Temperature  
Mean Temperature 54 °F 60 °F  
Max Temperature 64 °F 76 °F 94 °F (1987)
Min Temperature 44 °F 45 °F 30 °F (1930)
Degree Days  
Heating Degree Days 11 6  
Month to date heating degree days 91 68  
Since 1 July heating degree days 5661 5493  
Cooling Degree Days 0 1  
Month to date cooling degree days 0 8  
Year to date cooling degree days 2 11  
Growing Degree Days 4 (Base 50)    
Moisture  
Dew Point 38 °F    
Average Humidity 55    
Maximum Humidity 71    
Minimum Humidity 39    
Precipitation  
Precipitation T in 0.02 in 0.51 in (1979)
Month to date precipitation T 0.22  
Year to date precipitation 4.99 2.84  
Sea Level Pressure  
Sea Level Pressure 29.86 in    
Wind  
Wind Speed 4 mph (East)    
Max Wind Speed 14 mph    
Max Gust Speed 18 mph    
Visibility 10 miles    
Events      
T = Trace of Precipitation, MM = Missing Value Source: NWS Daily Summary

Daily Weather History Graph

Daily Weather History Graph

Search for Another Location

Airport or City:

Astronomy

May. 10, 2019 Rise Set
Actual Time 6:11 AM MDT 8:19 PM MDT
Civil Twilight 5:42 AM MDT 8:49 PM MDT
Nautical Twilight 5:06 AM MDT 9:25 PM MDT
Astronomical Twilight 4:27 AM MDT 10:04 PM MDT
Moon 11:15 AM MDT (5/10) 1:15 AM MDT (5/10)
Length of Visible Light 15h 07m
Length of Day
14h 07m
Waxing Crescent, 36% of the Moon is Illuminated
May 10
Waxing Crescent
May 11
First Quarter
May 18
Full
May 26
Last Quarter
Jun 3
New

Hourly Weather History & Observations

Time (MDT) Temp. Windchill Dew Point Humidity Pressure Visibility Wind Dir Wind Speed Gust Speed Precip Events Conditions
12:53 AM 46.0 °F 43.9 °F 34.0 °F 63% 29.86 in 10.0 mi WSW 4.6 mph - N/A   Scattered Clouds
1:53 AM 50.0 °F - 36.0 °F 59% 29.85 in 10.0 mi Calm Calm - N/A   Overcast
2:53 AM 51.1 °F - 37.9 °F 61% 29.84 in 10.0 mi Calm Calm - N/A   Overcast
3:53 AM 52.0 °F - 39.0 °F 61% 29.82 in 10.0 mi East 3.5 mph - N/A   Overcast
4:53 AM 51.1 °F - 39.9 °F 66% 29.83 in 10.0 mi ESE 6.9 mph - N/A   Overcast
5:53 AM 48.9 °F - 37.9 °F 66% 29.84 in 10.0 mi ESE 6.9 mph - N/A   Mostly Cloudy
6:53 AM 48.9 °F - 39.0 °F 69% 29.87 in 10.0 mi East 3.5 mph - N/A   Mostly Cloudy
7:53 AM 53.1 °F - 37.0 °F 55% 29.88 in 10.0 mi ENE 9.2 mph - N/A   Overcast
8:53 AM 55.0 °F - 37.9 °F 53% 29.88 in 10.0 mi East 6.9 mph - N/A   Mostly Cloudy
9:53 AM 55.9 °F - 37.0 °F 49% 29.88 in 10.0 mi NNE 3.5 mph - N/A   Overcast
10:53 AM 57.0 °F - 37.0 °F 47% 29.88 in 10.0 mi Calm Calm - N/A   Mostly Cloudy
11:53 AM 59.0 °F - 37.0 °F 44% 29.88 in 10.0 mi Variable 3.5 mph - N/A   Overcast
12:53 PM 57.9 °F - 39.0 °F 49% 29.88 in 10.0 mi SW 3.5 mph - 0.00 in   Overcast
1:53 PM 61.0 °F - 37.9 °F 42% 29.86 in 10.0 mi North - - N/A   Mostly Cloudy
2:53 PM 59.0 °F - 37.9 °F 46% 29.86 in 10.0 mi WSW 5.8 mph - N/A   Overcast
3:53 PM 62.1 °F - 37.9 °F 41% 29.83 in 10.0 mi NNW 6.9 mph - N/A   Partly Cloudy
4:53 PM 62.1 °F - 37.0 °F 39% 29.83 in 10.0 mi Calm Calm - N/A   Mostly Cloudy
5:53 PM 62.1 °F - 37.0 °F 39% 29.83 in 10.0 mi North - - N/A   Overcast
6:53 PM 59.0 °F - 37.9 °F 46% 29.85 in 10.0 mi NNE 9.2 mph - N/A   Overcast
7:53 PM 59.0 °F - 37.9 °F 46% 29.83 in 10.0 mi Calm Calm - 0.00 in   Partly Cloudy
8:53 PM 55.0 °F - 37.9 °F 53% 29.85 in 10.0 mi Calm Calm - N/A   Scattered Clouds
9:53 PM 54.0 °F - 37.0 °F 53% 29.88 in 10.0 mi Calm Calm - N/A   Clear
10:53 PM 48.9 °F - 36.0 °F 61% 29.90 in 10.0 mi West 3.5 mph - N/A   Clear
11:53 PM 46.0 °F 44.8 °F 37.9 °F 73% 29.91 in 10.0 mi West 3.5 mph - N/A   Clear